Вернуться в каталог

COSMOS 2528 DEB

АктивенLEO
NORAD 45037·DEBRIS·🇷🇺 Russia

Запущен Oct 25, 2018 с Plesetsk Cosmodrome

Loading…

Ближайшие Пролёты (ближайшие 24 часа)

TLE

СвежийSource: Space-Track

Эпоха: Sep 14, 2026, 08:12 UTC

1 45037U 18082C   26257.34175103  .00000713  00000-0  53837-3 0  9994
2 45037  67.2255 243.7648 0016286 282.0835  77.8427 13.99632123339215

Отслеживайте COSMOS 2528 DEB в реальном времени с AllMySat

Download on the App Store